Weather History for Miami, FL

Change the Weather History Date:

Monday, August 12, 2013

  Actual Average Record
Temperature  
Mean Temperature 86 °F 84 °F  
Max Temperature 91 °F 91 °F 94 °F (1955)
Min Temperature 80 °F 78 °F 72 °F (1994)
Degree Days  
Heating Degree Days 0 0  
Month to date heating degree days 0 0  
Since 1 June heating degree days 0 0  
Since 1 July heating degree days 0 0  
Cooling Degree Days 21 19  
Month to date cooling degree days 234 236  
Year to date cooling degree days 2778 2716  
Since 1 June cooling degree days 1333 1360  
Growing Degree Days 35 (Base 50)    
Moisture  
Dew Point 73 °F    
Average Humidity 68    
Maximum Humidity 79    
Minimum Humidity 56    
Precipitation  
Precipitation 0.00 in 0.28 in 6.57 in (1994)
Month to date precipitation 1.84 3.15  
Year to date precipitation 40.09 34.67  
Snow  
Snow 0.00 in - - ()
Month to date snowfall 0.0  
Since 1 June snowfall 0.0  
Since 1 July snowfall 0.0  
Snow Depth 0.00 in    
Sea Level Pressure  
Sea Level Pressure 30.07 in    
Wind  
Wind Speed 9 mph (ENE)    
Max Wind Speed 17 mph    
Max Gust Speed 24 mph    
Visibility 10 miles    
Events      
T = Trace of Precipitation, MM = Missing Value Source: NWS Daily Summary

Daily Weather History Graph

Daily Weather History Graph

Search for Another Location

Airport:

Trip Planner

Search our weather history database for the weather conditions in past years. The results will help you decide how hot, cold, wet, or windy it might be!

Date:

Astronomy

Aug. 12, 2013 Rise Set
Actual Time 6:52 AM EDT 7:59 PM EDT
Civil Twilight 6:28 AM EDT 8:23 PM EDT
Nautical Twilight 6:00 AM EDT 8:51 PM EDT
Astronomical Twilight 5:30 AM EDT 9:21 PM EDT
Moon 12:01 PM EDT (8/12) 11:34 PM EDT (8/12)
Length of Visible Light 13h 54m
Length of Day
13h 06m
Waxing Crescent, 31% of the Moon is Illuminated
Aug 12
Waxing Crescent
Aug 14
First Quarter
Aug 20
Full
Aug 28
Last Quarter
Sep 5
New

Hourly Weather History & Observations

Time (EDT) Temp. Heat Index Dew Point Humidity Pressure Visibility Wind Dir Wind Speed Gust Speed Precip Events Conditions
12:53 AM 84.0 °F 90.2 °F 73.0 °F 69% 30.11 in 10.0 mi ENE 6.9 mph - N/A   Scattered Clouds
1:53 AM 82.9 °F 88.8 °F 73.0 °F 72% 30.10 in 10.0 mi ENE 5.8 mph - N/A   Scattered Clouds
2:53 AM 82.0 °F 86.7 °F 72.0 °F 71% 30.09 in 10.0 mi ENE 5.8 mph - N/A   Scattered Clouds
3:53 AM 81.0 °F 85.2 °F 72.0 °F 74% 30.08 in 10.0 mi Calm Calm - N/A   Clear
4:53 AM 81.0 °F 85.2 °F 72.0 °F 74% 30.07 in 10.0 mi NE 3.5 mph - N/A   Clear
5:53 AM 81.0 °F 85.2 °F 72.0 °F 74% 30.07 in 10.0 mi NE 3.5 mph - N/A   Partly Cloudy
6:53 AM 81.0 °F 85.2 °F 72.0 °F 74% 30.07 in 10.0 mi Calm Calm - N/A   Scattered Clouds
7:53 AM 82.0 °F 87.4 °F 73.0 °F 74% 30.08 in 10.0 mi North 3.5 mph - N/A   Scattered Clouds
8:53 AM 84.9 °F 91.4 °F 73.0 °F 67% 30.09 in 10.0 mi NE 9.2 mph - N/A   Scattered Clouds
9:53 AM 87.1 °F 94.5 °F 73.0 °F 63% 30.09 in 10.0 mi NE 12.7 mph - N/A   Scattered Clouds
10:53 AM 87.1 °F 95.4 °F 73.9 °F 65% 30.09 in 10.0 mi NE 8.1 mph - N/A   Mostly Cloudy
11:53 AM 89.1 °F 96.0 °F 72.0 °F 57% 30.09 in 10.0 mi East 13.8 mph 18.4 mph N/A   Scattered Clouds
12:53 PM 88.0 °F 96.5 °F 73.9 °F 63% 30.08 in 10.0 mi East 13.8 mph - N/A   Mostly Cloudy
1:53 PM 90.0 °F 96.9 °F 72.0 °F 55% 30.06 in 10.0 mi ENE 11.5 mph 18.4 mph N/A   Scattered Clouds
2:53 PM 90.0 °F 96.4 °F 71.1 °F 54% 30.06 in 10.0 mi East 12.7 mph 20.7 mph N/A   Mostly Cloudy
3:53 PM 90.0 °F 96.9 °F 72.0 °F 55% 30.04 in 10.0 mi East 15.0 mph 24.2 mph N/A   Mostly Cloudy
4:53 PM 88.0 °F 94.7 °F 72.0 °F 59% 30.03 in 10.0 mi ENE 11.5 mph 20.7 mph N/A   Mostly Cloudy
5:53 PM 86.0 °F 93.0 °F 73.0 °F 65% 30.03 in 10.0 mi ENE 16.1 mph - N/A   Mostly Cloudy
6:53 PM 86.0 °F 93.0 °F 73.0 °F 65% 30.03 in 10.0 mi East 13.8 mph 19.6 mph N/A   Mostly Cloudy
7:53 PM 84.9 °F 91.4 °F 73.0 °F 67% 30.03 in 10.0 mi NE 6.9 mph - N/A   Mostly Cloudy
8:53 PM 84.0 °F 91.2 °F 73.9 °F 72% 30.04 in 10.0 mi ENE 9.2 mph - N/A   Mostly Cloudy
9:53 PM 84.0 °F 91.2 °F 73.9 °F 72% 30.05 in 10.0 mi ENE 10.4 mph - N/A   Scattered Clouds
10:53 PM 82.9 °F 89.4 °F 73.9 °F 74% 30.06 in 10.0 mi ENE 9.2 mph - N/A   Scattered Clouds
11:53 PM 82.9 °F 90.2 °F 75.0 °F 77% 30.06 in 10.0 mi NE 5.8 mph - N/A   Scattered Clouds